When you browse on this site, cookies collect data to enhance your experience and personalize the content and advertising you see.
Visit our Privacy Policy to learn more. By continuing to use the site, you agree to this use of cookies and data.
  • en Suisse
  • Liste des pays
  • À 7 jours
  • Température de l'eau
  • Carte satellitaire
  • Carte météo
  • Widgets météo
  • user-avatar
    Se connecter

    Météo par heure à Plai

    Ce jour, 19 Juin, Mercredi

    Heure Température Précipitation Vent Pression Humidité
    00:00 +14°C° 0.1 mm 0 m/s 685 mmHg 94%
    01:00 +14°C° 0.1 mm 0 m/s 684 mmHg 93%
    02:00 +15°C° 0 mm 1 m/s 684 mmHg 93%
    03:00 +15°C° 0 mm 1 m/s 684 mmHg 93%
    04:00 +15°C° 0 mm 1 m/s 684 mmHg 92%
    05:00 +14°C° 0 mm 1 m/s 684 mmHg 91%
    06:00 +16°C° 0 mm 0 m/s 685 mmHg 86%
    07:00 +18°C° 0 mm 0 m/s 685 mmHg 81%
    08:00 +20°C° 0 mm 0 m/s 685 mmHg 74%
    09:00 +22°C° 0.3 mm 0 m/s 686 mmHg 68%
    10:00 +25°C° 0.3 mm 1 m/s 686 mmHg 62%
    11:00 +27°C° 0.3 mm 1 m/s 686 mmHg 56%
    12:00 +26°C° 0.7 mm 1 m/s 686 mmHg 58%
    13:00 +26°C° 0.7 mm 1 m/s 685 mmHg 61%
    14:00 +24°C° 0 mm 1 m/s 685 mmHg 69%
    15:00 +24°C° 1 mm 1 m/s 684 mmHg 72%
    16:00 +23°C° 1 mm 1 m/s 684 mmHg 76%
    17:00 +23°C° 1 mm 1 m/s 684 mmHg 79%
    18:00 +19°C° 0.6 mm 0 m/s 683 mmHg 83%
    19:00 +18°C° 0.6 mm 0 m/s 683 mmHg 87%
    20:00 +17°C° 0.6 mm 0 m/s 683 mmHg 91%
    21:00 +16°C° 0.2 mm 0 m/s 683 mmHg 90%
    22:00 +16°C° 0.2 mm 1 m/s 683 mmHg 90%
    23:00 +16°C° 0.2 mm 1 m/s 683 mmHg 90%

    Demain, 20 Juin, Jeudi

    Heure Température Précipitation Vent Pression Humidité
    00:00 +15°C° 0 mm 1 m/s 683 mmHg 89%
    01:00 +15°C° 0 mm 1 m/s 683 mmHg 89%
    02:00 +15°C° 0 mm 1 m/s 683 mmHg 89%
    03:00 +15°C° 0 mm 1 m/s 682 mmHg 89%
    04:00 +15°C° 0 mm 1 m/s 682 mmHg 89%
    05:00 +14°C° 0 mm 1 m/s 682 mmHg 89%
    06:00 +18°C° 0.1 mm 1 m/s 683 mmHg 83%
    07:00 +19°C° 0.1 mm 0 m/s 684 mmHg 77%
    08:00 +21°C° 0.1 mm 0 m/s 684 mmHg 71%
    09:00 +22°C° 0.5 mm 0 m/s 684 mmHg 67%
    10:00 +23°C° 0.5 mm 0 m/s 684 mmHg 62%
    11:00 +27°C° 0.5 mm 1 m/s 685 mmHg 58%
    12:00 +27°C° 0.3 mm 1 m/s 684 mmHg 57%
    13:00 +27°C° 0.3 mm 1 m/s 684 mmHg 56%
    14:00 +27°C° 0.3 mm 1 m/s 684 mmHg 55%
    15:00 +26°C° 1 mm 1 m/s 684 mmHg 61%
    16:00 +25°C° 1 mm 1 m/s 683 mmHg 66%
    17:00 +25°C° 1 mm 1 m/s 683 mmHg 72%
    18:00 +23°C° 0.5 mm 1 m/s 683 mmHg 77%
    19:00 +21°C° 0.5 mm 1 m/s 683 mmHg 82%
    20:00 +18°C° 0.5 mm 0 m/s 682 mmHg 88%
    21:00 +19°C° 0.1 mm 1 m/s 682 mmHg 88%
    22:00 +18°C° 0.1 mm 1 m/s 682 mmHg 89%
    23:00 +16°C° 0.1 mm 1 m/s 683 mmHg 89%

    Après-demain, 21 Juin, Vendredi

    Heure Température Précipitation Vent Pression Humidité
    00:00 +16°C° 0.1 mm 1 m/s 683 mmHg 89%
    01:00 +16°C° 0.1 mm 1 m/s 683 mmHg 89%
    02:00 +16°C° 0.1 mm 1 m/s 683 mmHg 88%
    03:00 +16°C° 0 mm 1 m/s 683 mmHg 88%
    04:00 +16°C° 0 mm 1 m/s 683 mmHg 88%
    05:00 +16°C° 0 mm 1 m/s 683 mmHg 88%
    06:00 +17°C° 0 mm 0 m/s 683 mmHg 82%
    07:00 +19°C° 0 mm 0 m/s 684 mmHg 76%
    08:00 +21°C° 0 mm 0 m/s 685 mmHg 70%
    09:00 +22°C° 0.5 mm 0 m/s 685 mmHg 68%
    10:00 +23°C° 0.5 mm 0 m/s 685 mmHg 66%
    11:00 +26°C° 0.5 mm 1 m/s 685 mmHg 64%
    12:00 +26°C° 0.7 mm 1 m/s 685 mmHg 63%
    13:00 +26°C° 0.7 mm 1 m/s 685 mmHg 62%
    14:00 +26°C° 0.7 mm 1 m/s 685 mmHg 62%
    15:00 +25°C° 2.1 mm 1 m/s 684 mmHg 70%
    16:00 +24°C° 2.1 mm 1 m/s 684 mmHg 78%
    17:00 +23°C° 2.1 mm 1 m/s 683 mmHg 86%
    18:00 +21°C° 0.8 mm 1 m/s 683 mmHg 88%
    19:00 +20°C° 0.8 mm 1 m/s 683 mmHg 89%
    20:00 +18°C° 0.8 mm 1 m/s 683 mmHg 90%
    21:00 +16°C° 0 mm 1 m/s 683 mmHg 89%
    22:00 +16°C° 0 mm 1 m/s 683 mmHg 87%
    23:00 +15°C° 0 mm 1 m/s 683 mmHg 86%

    22 Juin, Samedi

    Heure Température Précipitation Vent Pression Humidité
    00:00 +15°C° 0 mm 1 m/s 683 mmHg 86%
    01:00 +15°C° 0 mm 1 m/s 683 mmHg 86%
    02:00 +15°C° 0 mm 1 m/s 683 mmHg 86%
    03:00 +15°C° 0 mm 1 m/s 683 mmHg 86%
    04:00 +14°C° 0 mm 0 m/s 683 mmHg 86%
    05:00 +14°C° 0 mm 0 m/s 683 mmHg 86%
    06:00 +16°C° 0 mm 0 m/s 684 mmHg 81%
    07:00 +18°C° 0 mm 0 m/s 685 mmHg 75%
    08:00 +21°C° 0 mm 0 m/s 686 mmHg 69%
    09:00 +22°C° 0.1 mm 0 m/s 686 mmHg 64%
    10:00 +25°C° 0.1 mm 1 m/s 686 mmHg 60%
    11:00 +27°C° 0.1 mm 1 m/s 686 mmHg 55%
    12:00 +26°C° 1 mm 1 m/s 686 mmHg 62%
    13:00 +26°C° 1 mm 1 m/s 685 mmHg 69%
    14:00 +25°C° 1 mm 2 m/s 685 mmHg 76%
    15:00 +24°C° 2.2 mm 1 m/s 685 mmHg 80%
    16:00 +23°C° 2.2 mm 1 m/s 684 mmHg 84%
    17:00 +22°C° 2.2 mm 1 m/s 684 mmHg 88%
    18:00 +21°C° 1.6 mm 1 m/s 684 mmHg 90%
    19:00 +20°C° 1.6 mm 1 m/s 684 mmHg 92%
    20:00 +19°C° 1.6 mm 1 m/s 683 mmHg 94%
    21:00 +18°C° 0.4 mm 1 m/s 683 mmHg 95%
    22:00 +18°C° 0.4 mm 1 m/s 683 mmHg 95%
    23:00 +16°C° 0.4 mm 1 m/s 684 mmHg 96%

    23 Juin, Dimanche

    Heure Température Précipitation Vent Pression Humidité
    00:00 +16°C° 0.1 mm 1 m/s 683 mmHg 95%
    01:00 +15°C° 0.1 mm 0 m/s 683 mmHg 95%
    02:00 +14°C° 0.1 mm 0 m/s 683 mmHg 94%
    03:00 +14°C° 0.1 mm 0 m/s 683 mmHg 94%
    04:00 +14°C° 0.1 mm 0 m/s 683 mmHg 94%
    05:00 +14°C° 0.1 mm 0 m/s 683 mmHg 95%
    06:00 +16°C° 0.2 mm 0 m/s 683 mmHg 92%
    07:00 +17°C° 0.2 mm 0 m/s 684 mmHg 90%
    08:00 +19°C° 0.2 mm 0 m/s 684 mmHg 88%
    09:00 +22°C° 1.3 mm 1 m/s 684 mmHg 86%
    10:00 +22°C° 1.3 mm 1 m/s 684 mmHg 84%
    11:00 +23°C° 1.3 mm 1 m/s 684 mmHg 81%
    12:00 +23°C° 1.8 mm 1 m/s 684 mmHg 82%
    13:00 +23°C° 1.8 mm 1 m/s 684 mmHg 83%
    14:00 +23°C° 1.8 mm 1 m/s 684 mmHg 84%
    15:00 +23°C° 1.7 mm 1 m/s 684 mmHg 87%
    16:00 +22°C° 1.7 mm 1 m/s 683 mmHg 89%
    17:00 +22°C° 1.7 mm 1 m/s 683 mmHg 91%
    18:00 +21°C° 0.7 mm 1 m/s 683 mmHg 92%
    19:00 +20°C° 0.7 mm 1 m/s 683 mmHg 93%
    20:00 +19°C° 0.7 mm 1 m/s 683 mmHg 94%
    21:00 +18°C° 0.1 mm 1 m/s 683 mmHg 94%
    22:00 +15°C° 0.1 mm 0 m/s 684 mmHg 94%
    23:00 +15°C° 0.1 mm 0 m/s 684 mmHg 94%

    24 Juin, Lundi

    Heure Température Précipitation Vent Pression Humidité
    00:00 +15°C° 0.1 mm 0 m/s 684 mmHg 94%
    01:00 +14°C° 0.1 mm 0 m/s 684 mmHg 94%
    02:00 +14°C° 0.1 mm 0 m/s 684 mmHg 94%
    03:00 +14°C° 0 mm 0 m/s 684 mmHg 94%
    04:00 +14°C° 0 mm 0 m/s 684 mmHg 93%
    05:00 +14°C° 0 mm 0 m/s 685 mmHg 93%
    06:00 +18°C° 0 mm 1 m/s 685 mmHg 89%
    07:00 +20°C° 0 mm 1 m/s 686 mmHg 85%
    08:00 +21°C° 0 mm 1 m/s 686 mmHg 81%
    09:00 +21°C° 0.2 mm 2 m/s 687 mmHg 73%
    10:00 +24°C° 0.2 mm 2 m/s 687 mmHg 66%
    11:00 +25°C° 0.2 mm 2 m/s 687 mmHg 58%
    12:00 +25°C° 0.3 mm 3 m/s 687 mmHg 61%
    13:00 +25°C° 0.3 mm 3 m/s 687 mmHg 63%
    14:00 +24°C° 0.3 mm 3 m/s 687 mmHg 65%
    15:00 +24°C° 0.5 mm 3 m/s 687 mmHg 71%
    16:00 +22°C° 0.5 mm 3 m/s 687 mmHg 76%
    17:00 +21°C° 0.5 mm 2 m/s 687 mmHg 82%
    18:00 +20°C° 0.1 mm 2 m/s 687 mmHg 86%
    19:00 +19°C° 0.1 mm 2 m/s 687 mmHg 91%
    20:00 +19°C° 0.1 mm 1 m/s 687 mmHg 95%
    21:00 +18°C° 0 mm 1 m/s 687 mmHg 96%
    22:00 +16°C° 0 mm 1 m/s 687 mmHg 97%
    23:00 +16°C° 0 mm 1 m/s 687 mmHg 98%
    Voir plus